FW1574 Weather Reports


Display with metric or nautical units.
time (UTC)temp
F
wind
direction
speed
MPH
gust
MPH
rain 1hr
in
rain 24hr
in
rain mn
in
humidity
%
barometer
mb
20260510024032 64 279 0.0 0.0 0.00 0.00 0.00 87 1012.5
20260510023531 64 279 0.0 0.0 0.00 0.00 0.00 87 1012.4
20260510023032 64 279 0.0 0.0 0.00 0.00 0.00 87 1012.5
20260510022531 64 279 0.0 0.0 0.00 0.00 0.00 86 1012.5
20260510022031 64 280 0.0 0.0 0.00 0.00 0.00 85 1012.5
20260510021531 65 279 0.0 0.0 0.00 0.00 0.00 84 1012.4
20260510021034 65 280 0.0 0.0 0.00 0.00 0.00 84 1012.2
20260510020531 65 279 0.0 0.0 0.00 0.00 0.00 83 1012.1
20260510020031 66 279 0.0 0.0 0.00 0.00 0.00 83 1012.1
20260510015530 66 279 0.0 0.0 0.00 0.00 0.00 82 1012.1
20260510015030 66 279 0.0 0.0 0.00 0.00 0.00 81 1012.0
20260510014531 66 279 0.0 0.0 0.00 0.00 0.00 80 1011.8
20260510014030 66 279 0.0 0.0 0.00 0.00 0.00 80 1011.8
20260510013530 67 280 0.0 0.0 0.00 0.00 0.00 80 1011.7
20260510013029 67 279 0.0 0.0 0.00 0.00 0.00 81 1011.7
20260510012531 67 279 0.0 0.0 0.00 0.00 0.00 81 1011.6
20260510012030 67 280 0.0 0.0 0.00 0.00 0.00 80 1011.5
20260510011530 68 279 0.0 0.0 0.00 0.00 0.00 81 1011.4
20260510011029 68 279 0.0 0.0 0.00 0.00 0.00 81 1011.3
20260510010631 68 252 0.0 0.0 0.00 0.00 0.00 80 1011.2
20260510010029 68 252 0.0 0.0 0.00 0.00 0.00 80 1011.0
20260510005528 68 252 0.0 0.0 0.00 0.00 0.00 79 1011.1
20260510005029 69 252 0.0 0.0 0.00 0.00 0.00 79 1011.0
20260510004530 69 252 0.0 0.0 0.00 0.00 0.00 79 1010.9
20260510004027 69 252 0.0 0.0 0.00 0.00 0.00 79 1010.8
20260510003536 70 252 0.0 0.0 0.00 0.00 0.00 78 1010.8
20260510003041 70 252 0.0 1.0 0.00 0.00 0.00 79 1010.8
20260510002527 70 252 0.0 2.0 0.00 0.00 0.00 79 1010.6
20260510002128 70 130 0.0 2.0 0.00 0.00 0.00 79 1010.5
20260510001526 70 178 0.0 0.0 0.00 0.00 0.00 79 1010.4
20260510001027 70 178 0.0 0.0 0.00 0.00 0.00 78 1010.4
20260510000526 70 178 0.0 1.0 0.00 0.00 0.00 78 1010.4
20260510000029 70 178 0.0 1.0 0.00 0.00 0.00 79 1010.3
20260509235526 70 94 0.0 2.0 0.00 0.00 0.00 78 1010.5
20260509235026 71 94 0.0 3.0 0.00 0.00 0.00 78 1010.4
20260509234536 70 108 1.0 3.0 0.00 0.00 0.00 78 1010.3
20260509234029 70 96 0.0 2.0 0.00 0.00 0.00 78 1010.2
20260509233526 71 96 0.0 3.0 0.00 0.00 0.00 78 1010.2
20260509233038 71 93 0.0 3.0 0.00 0.00 0.00 78 1010.1
20260509232525 71 88 0.0 2.0 0.00 0.00 0.00 77 1010.1
20260509232025 71 88 0.0 2.0 0.00 0.00 0.00 77 1010.1
20260509231528 71 156 0.0 5.0 0.00 0.00 0.00 77 1010.1
20260509231025 71 110 0.0 5.0 0.00 0.00 0.00 76 1010.1
20260509230525 72 106 1.0 4.0 0.00 0.00 0.00 76 1010.0
20260509230025 72 119 2.0 4.0 0.00 0.00 0.00 76 1010.0
20260509225525 72 360 0.0 4.0 0.00 0.00 0.00 76 1010.0
20260509225024 72 103 1.0 3.0 0.00 0.00 0.00 75 1010.0
20260509224526 72 98 1.0 4.0 0.00 0.00 0.00 75 1010.0
20260509224024 72 111 2.0 5.0 0.00 0.00 0.00 75 1009.9
20260509223523 72 86 2.0 5.0 0.00 0.00 0.00 74 1010.0
20260509223024 72 94 0.0 2.0 0.00 0.00 0.00 74 1009.9
20260509222524 73 117 0.0 5.0 0.00 0.00 0.00 73 1009.8
20260509222022 73 114 1.0 5.0 0.00 0.00 0.00 72 1009.7
20260509221522 73 84 1.0 3.0 0.00 0.00 0.00 70 1009.6
20260509221024 74 240 0.0 0.0 0.00 0.00 0.00 64 1009.6
20260509220521 73 240 0.0 0.0 0.00 0.00 0.00 68 1009.5
20260509220027 74 240 0.0 1.0 0.00 0.00 0.00 66 1009.4
20260509215524 74 240 0.0 2.0 0.00 0.00 0.00 64 1009.5
20260509215022 74 240 0.0 2.0 0.00 0.00 0.00 62 1009.5
20260509214520 74 251 0.0 2.0 0.00 0.00 0.00 61 1009.6
20260509214023 74 251 0.0 3.0 0.00 0.00 0.00 61 1009.6
20260509213526 75 251 1.0 3.0 0.00 0.00 0.00 60 1009.5
20260509213019 75 246 1.0 3.0 0.00 0.00 0.00 60 1009.6
20260509212519 75 227 0.0 3.0 0.00 0.00 0.00 59 1009.6
20260509212018 75 244 1.0 3.0 0.00 0.00 0.00 59 1009.6
20260509211518 76 157 1.0 3.0 0.00 0.00 0.00 60 1009.6
20260509211019 76 228 0.0 3.0 0.00 0.00 0.00 58 1009.5
20260509210518 76 254 1.0 3.0 0.00 0.00 0.00 61 1009.5
20260509210023 75 213 0.0 2.0 0.00 0.00 0.00 59 1009.4
20260509205517 76 213 0.0 3.0 0.00 0.00 0.00 61 1009.5
20260509205016 76 238 0.0 3.0 0.00 0.00 0.00 60 1009.3
20260509204516 76 234 0.0 3.0 0.00 0.00 0.00 58 1009.3
20260509204019 75 258 0.0 4.0 0.00 0.00 0.00 59 1009.2
20260509203515 75 229 0.0 4.0 0.00 0.00 0.00 59 1009.1
20260509203014 75 217 0.0 2.0 0.00 0.00 0.00 58 1009.2
20260509202514 75 212 0.0 2.0 0.00 0.00 0.00 62 1009.1
20260509202013 75 213 0.0 2.0 0.00 0.00 0.00 60 1009.1
20260509201514 75 260 1.0 2.0 0.00 0.00 0.00 58 1009.3
20260509201012 75 260 0.0 3.0 0.00 0.00 0.00 60 1009.1
20260509200517 75 260 1.0 3.0 0.00 0.00 0.00 57 1009.3
20260509200011 75 256 1.0 3.0 0.00 0.00 0.00 57 1009.3
20260509195511 75 253 0.0 4.0 0.00 0.00 0.00 57 1009.6
20260509195012 75 260 2.0 4.0 0.00 0.00 0.00 57 1009.6
20260509194510 75 245 1.0 4.0 0.00 0.00 0.00 55 1009.7
20260509194008 75 257 1.0 3.0 0.00 0.00 0.00 59 1009.8
20260509193507 75 272 1.0 3.0 0.00 0.00 0.00 58 1009.8
20260509193006 74 248 0.0 3.0 0.00 0.00 0.00 63 1009.9
20260509192505 75 241 1.0 3.0 0.00 0.00 0.00 63 1009.8
20260509192004 75 271 1.0 3.0 0.00 0.00 0.00 63 1009.9
20260509191503 75 192 1.0 3.0 0.00 0.00 0.00 65 1009.9
20260509191006 74 299 0.0 3.0 0.00 0.00 0.00 66 1010.1
20260509190506 74 285 1.0 4.0 0.00 0.00 0.00 67 1010.2
20260509190002 74 264 1.0 4.0 0.00 0.00 0.00 65 1010.1
20260509185504 74 243 0.0 3.0 0.00 0.00 0.00 64 1010.3
20260509185101 74 245 1.0 3.0 0.00 0.00 0.00 65 1010.3
20260509184610 73 305 2.0 3.0 0.00 0.00 0.00 65 1010.2
20260509184100 73 249 1.0 3.0 0.00 0.00 0.00 65 1010.2
20260509183559 73 290 1.0 3.0 0.00 0.00 0.00 64 1010.2
20260509183059 73 254 1.0 2.0 0.00 0.00 0.00 64 1010.3
20260509182600 72 299 0.0 2.0 0.00 0.00 0.00 68 1010.5
20260509182058 72 302 0.0 2.0 0.00 0.00 0.00 67 1010.4
20260509181604 72 278 0.0 2.0 0.00 0.00 0.00 66 1010.3
20260509181059 72 304 1.0 3.0 0.00 0.00 0.00 67 1010.3
20260509180601 73 215 1.0 3.0 0.00 0.00 0.00 62 1010.3
20260509180103 73 259 1.0 3.0 0.00 0.00 0.00 63 1010.1
20260509175556 73 284 0.0 2.0 0.00 0.00 0.00 65 1010.2
20260509175055 73 250 0.0 2.0 0.00 0.00 0.00 64 1010.2
20260509174556 73 283 0.0 3.0 0.00 0.00 0.00 65 1010.2
20260509174053 72 355 0.0 2.0 0.00 0.00 0.00 66 1010.4
20260509173553 71 355 0.0 2.0 0.00 0.00 0.00 66 1010.5
20260509173057 71 225 0.0 3.0 0.00 0.00 0.00 68 1010.6
20260509172553 71 216 0.0 3.0 0.00 0.00 0.00 63 1010.7
20260509172052 71 198 0.0 2.0 0.00 0.00 0.00 66 1010.7
20260509171553 71 239 0.0 2.0 0.00 0.00 0.00 67 1010.7
20260509171054 72 275 1.0 2.0 0.00 0.00 0.00 64 1010.7
20260509170552 72 344 0.0 3.0 0.00 0.00 0.00 64 1010.7
20260509170100 72 292 1.0 3.0 0.00 0.00 0.00 66 1010.8
20260509165553 72 248 2.0 3.0 0.00 0.00 0.00 66 1010.8
20260509165049 71 43 0.0 3.0 0.00 0.00 0.00 68 1010.9
20260509164550 71 257 2.0 3.0 0.00 0.00 0.00 68 1010.9
20260509164051 71 256 1.0 3.0 0.00 0.00 0.00 67 1011.1
20260509163547 70 132 0.0 6.0 0.00 0.00 0.00 69 1011.1
20260509163057 70 125 2.0 6.0 0.00 0.00 0.00 69 1011.1
20260509162545 70 59 2.0 5.0 0.00 0.00 0.00 70 1011.0
20260509162045 69 295 0.0 3.0 0.00 0.00 0.00 71 1011.1
20260509161552 70 288 1.0 3.0 0.00 0.00 0.00 70 1011.2
20260509161044 69 69 1.0 3.0 0.00 0.00 0.00 72 1011.3
20260509160543 69 82 1.0 3.0 0.00 0.00 0.00 73 1011.4
20260509160043 69 71 1.0 3.0 0.00 0.00 0.00 72 1011.4
20260509155541 69 111 0.0 3.0 0.00 0.00 0.00 73 1011.6
20260509155045 68 254 0.0 3.0 0.00 0.00 0.00 74 1011.5
20260509154541 68 289 1.0 3.0 0.00 0.00 0.00 72 1011.5
20260509154040 67 252 0.0 2.0 0.00 0.00 0.00 75 1011.7
20260509153539 67 252 0.0 3.0 0.00 0.00 0.00 78 1011.7
20260509153042 66 252 0.0 3.0 0.00 0.00 0.00 77 1011.7
20260509152535 65 250 1.0 4.0 0.00 0.00 0.00 77 1011.8
20260509152136 65 255 2.0 4.0 0.00 0.00 0.00 78 1011.9
20260509151537 65 233 0.0 3.0 0.00 0.00 0.00 77 1011.7
20260509151033 65 233 1.0 3.0 0.00 0.00 0.00 78 1011.7
20260509150533 65 198 1.0 2.0 0.00 0.00 0.00 78 1011.6
20260509150031 64 204 0.0 2.0 0.00 0.00 0.00 81 1011.6
20260509145533 64 218 0.0 2.0 0.00 0.00 0.00 80 1011.8
20260509145031 64 218 0.0 2.0 0.00 0.00 0.00 80 1011.8
20260509144532 64 213 1.0 2.0 0.00 0.00 0.00 80 1011.8
20260509144030 64 210 0.0 3.0 0.00 0.00 0.00 80 1011.7
20260509143530 63 210 1.0 3.0 0.00 0.00 0.00 80 1011.8
20260509143035 64 244 1.0 3.0 0.00 0.00 0.00 79 1011.7
20260509142528 63 244 1.0 3.0 0.00 0.00 0.00 80 1011.6
20260509142028 63 244 1.0 3.0 0.00 0.00 0.00 80 1011.4
20260509141529 63 244 1.0 3.0 0.00 0.00 0.00 80 1011.3
20260509141027 63 170 0.0 2.0 0.00 0.00 0.00 81 1011.3
20260509140526 63 241 0.0 3.0 0.00 0.00 0.00 80 1011.2
20260509140026 63 220 1.0 2.0 0.00 0.00 0.00 81 1011.2
20260509135525 63 216 0.0 2.0 0.00 0.00 0.00 83 1011.2
20260509135025 63 216 0.0 2.0 0.00 0.00 0.00 83 1011.0
20260509134523 62 183 0.0 2.0 0.00 0.00 0.00 84 1011.2
20260509134023 62 168 0.0 2.0 0.00 0.00 0.00 84 1011.2
20260509133522 61 119 0.0 2.0 0.00 0.00 0.00 86 1011.1
20260509133021 61 161 0.0 2.0 0.00 0.00 0.00 86 1011.1
20260509132520 61 161 0.0 1.0 0.00 0.00 0.00 86 1011.0
20260509132019 60 101 0.0 3.0 0.00 0.00 0.00 87 1011.0
20260509131518 60 104 1.0 3.0 0.00 0.00 0.00 88 1010.9
20260509131017 59 230 0.0 0.0 0.00 0.00 0.00 89 1011.2
20260509130520 59 230 0.0 0.0 0.00 0.00 0.00 90 1011.3
20260509130017 58 230 0.0 0.0 0.00 0.00 0.00 90 1011.4
20260509125523 58 230 0.0 0.0 0.00 0.00 0.00 90 1011.5
20260509125015 58 230 0.0 0.0 0.00 0.00 0.00 90 1011.7
20260509124514 58 230 0.0 0.0 0.00 0.00 0.00 90 1011.6
20260509124013 58 230 0.0 0.0 0.00 0.00 0.00 91 1011.4
20260509123513 57 230 0.0 1.0 0.00 0.00 0.00 91 1011.4
20260509123012 57 230 0.0 1.0 0.00 0.00 0.00 91 1011.3
20260509122517 57 230 0.0 1.0 0.00 0.00 0.00 91 1011.2
20260509122017 57 230 0.0 1.0 0.00 0.00 0.00 91 1011.2
20260509121511 57 230 0.0 0.0 0.00 0.00 0.00 91 1011.2
20260509121010 57 230 0.0 0.0 0.00 0.00 0.00 91 1011.2
20260509120510 57 230 0.0 1.0 0.00 0.00 0.00 91 1011.3
20260509120010 56 230 0.0 1.0 0.00 0.00 0.00 91 1011.0
20260509115511 56 230 0.0 0.0 0.00 0.00 0.00 91 1011.0
20260509115009 56 230 0.0 0.0 0.00 0.00 0.00 91 1011.1
20260509114521 56 230 0.0 0.0 0.00 0.00 0.00 91 1010.9
20260509114007 56 230 0.0 1.0 0.00 0.00 0.00 91 1011.0
20260509113508 56 161 0.0 0.0 0.00 0.00 0.00 91 1011.0
20260509113008 56 161 0.0 0.0 0.00 0.00 0.00 91 1011.1
20260509112507 56 161 0.0 0.0 0.00 0.00 0.00 91 1011.0
20260509112014 56 161 0.0 0.0 0.00 0.00 0.00 91 1010.8
20260509111507 56 161 0.0 0.0 0.00 0.00 0.00 91 1010.8
20260509111006 56 161 0.0 0.0 0.00 0.00 0.00 91 1010.9
20260509110509 56 161 0.0 0.0 0.00 0.00 0.00 91 1011.0
20260509110006 56 161 0.0 0.0 0.00 0.00 0.00 91 1010.9
20260509105506 56 161 0.0 0.0 0.00 0.00 0.00 91 1010.8
20260509105009 55 161 0.0 0.0 0.00 0.00 0.00 91 1010.8
20260509104506 55 161 0.0 0.0 0.00 0.00 0.00 91 1010.8
20260509104006 55 161 0.0 0.0 0.00 0.00 0.00 91 1010.8
20260509103504 55 161 0.0 0.0 0.00 0.00 0.00 91 1010.8
20260509103004 55 161 0.0 0.0 0.00 0.00 0.00 91 1010.8
20260509102504 55 161 0.0 0.0 0.00 0.00 0.00 91 1010.7
20260509102005 55 161 0.0 0.0 0.00 0.00 0.00 91 1010.7
20260509101506 55 161 0.0 0.0 0.00 0.00 0.00 92 1010.9
20260509101003 55 161 0.0 0.0 0.00 0.00 0.00 92 1010.9
20260509100503 55 161 0.0 0.0 0.00 0.00 0.00 92 1010.7
20260509100004 55 161 0.0 0.0 0.00 0.00 0.00 92 1010.7
20260509095505 55 161 0.0 0.0 0.00 0.00 0.00 92 1010.6
20260509095002 55 161 0.0 0.0 0.00 0.00 0.00 91 1010.6
20260509094502 55 161 0.0 0.0 0.00 0.00 0.00 91 1010.6
20260509094002 55 161 0.0 0.0 0.00 0.00 0.00 91 1010.6
20260509093501 55 161 0.0 0.0 0.00 0.00 0.00 92 1010.6
20260509093101 55 161 0.0 0.0 0.00 0.00 0.00 92 1010.7
20260509093001 55 161 0.0 0.0 0.00 0.00 0.00 92 1010.7
20260509092501 55 161 0.0 0.0 0.00 0.00 0.00 92 1010.9
20260509092100 55 161 0.0 0.0 0.00 0.00 0.00 92 1011.0
20260509091602 54 161 0.0 0.0 0.00 0.00 0.00 92 1011.0
20260509091100 54 161 0.0 0.0 0.00 0.00 0.00 92 1010.9
20260509090600 54 161 0.0 0.0 0.00 0.00 0.00 92 1011.0
20260509090123 54 161 0.0 0.0 0.00 0.00 0.00 92 1010.9
20260509085559 54 161 0.0 0.0 0.00 0.00 0.00 93 1011.0
20260509085102 53 161 0.0 0.0 0.00 0.00 0.00 93 1011.2
20260509084604 53 161 0.0 0.0 0.00 0.00 0.00 93 1011.4
20260509084059 53 161 0.0 0.0 0.00 0.00 0.00 93 1011.6
20260509083557 53 161 0.0 0.0 0.00 0.00 0.00 93 1011.5
20260509083058 53 161 0.0 0.0 0.00 0.00 0.00 93 1011.3
20260509082557 52 161 0.0 0.0 0.00 0.00 0.00 94 1011.2
20260509082057 52 161 0.0 1.0 0.00 0.00 0.00 94 1011.0
20260509081557 51 161 0.0 1.0 0.00 0.00 0.00 94 1011.1
20260509081056 51 161 0.0 2.0 0.00 0.00 0.00 93 1011.2
20260509080555 51 161 0.0 1.0 0.00 0.00 0.00 93 1011.2
20260509080109 51 161 0.0 1.0 0.00 0.00 0.00 93 1011.3
20260509075553 52 161 0.0 1.0 0.00 0.00 0.00 93 1011.2
20260509075057 52 161 0.0 0.0 0.00 0.00 0.00 93 1011.0
20260509074554 52 161 0.0 0.0 0.00 0.00 0.00 93 1011.1
20260509074053 52 161 0.0 0.0 0.00 0.00 0.00 93 1010.9
20260509073552 52 161 0.0 0.0 0.00 0.00 0.00 93 1010.7
20260509073105 52 161 0.0 0.0 0.00 0.00 0.00 93 1010.7
20260509072551 52 161 0.0 0.0 0.00 0.00 0.00 92 1010.6
20260509072050 52 161 0.0 0.0 0.00 0.00 0.00 92 1010.6
20260509071552 52 161 0.0 0.0 0.00 0.00 0.00 92 1010.5
20260509071050 52 161 0.0 0.0 0.00 0.00 0.00 92 1010.5
20260509070549 52 161 0.0 0.0 0.00 0.00 0.00 92 1010.7
20260509070055 52 161 0.0 0.0 0.00 0.00 0.00 92 1010.8
20260509065546 52 161 0.0 0.0 0.00 0.00 0.00 91 1010.9
20260509065046 52 161 0.0 0.0 0.00 0.00 0.00 91 1011.1
20260509064547 52 161 0.0 0.0 0.00 0.00 0.00 91 1011.1
20260509064047 52 161 0.0 0.0 0.00 0.00 0.00 91 1011.1
20260509063545 53 161 0.0 0.0 0.00 0.00 0.00 91 1011.0
20260509063050 53 161 0.0 0.0 0.00 0.00 0.00 90 1011.2
20260509062544 53 161 0.0 0.0 0.00 0.00 0.00 90 1011.2
20260509062044 53 161 0.0 0.0 0.00 0.00 0.00 91 1011.2
20260509061544 53 161 0.0 0.0 0.00 0.00 0.00 91 1011.4
20260509061042 53 161 0.0 0.0 0.00 0.00 0.00 91 1011.4
20260509060542 52 161 0.0 0.0 0.00 0.00 0.00 91 1011.5
20260509060041 52 161 0.0 0.0 0.00 0.00 0.00 91 1011.6
20260509055540 52 161 0.0 0.0 0.00 0.00 0.00 91 1011.8
20260509055039 52 161 0.0 0.0 0.00 0.00 0.00 92 1011.8
20260509054539 52 161 0.0 0.0 0.00 0.00 0.00 92 1011.8
20260509054039 52 161 0.0 0.0 0.00 0.00 0.00 91 1012.0
20260509053538 52 161 0.0 0.0 0.00 0.00 0.00 91 1011.9
20260509053044 52 161 0.0 0.0 0.00 0.00 0.00 91 1012.0
20260509052537 52 161 0.0 0.0 0.00 0.00 0.00 90 1011.9
20260509052037 52 161 0.0 2.0 0.00 0.00 0.00 90 1011.9
20260509051540 52 161 1.0 2.0 0.00 0.00 0.00 89 1012.0
20260509051034 53 161 0.0 1.0 0.00 0.00 0.00 88 1012.1
20260509050532 54 161 0.0 0.0 0.00 0.00 0.00 89 1012.1
20260509050048 53 161 0.0 0.0 0.00 0.00 0.00 89 1012.2
20260509045532 53 161 0.0 0.0 0.00 0.00 0.00 89 1012.1
20260509045033 54 161 0.0 0.0 0.00 0.00 0.00 89 1012.1
20260509044535 54 161 0.0 0.0 0.00 0.00 0.00 87 1012.1
20260509044029 54 161 0.0 0.0 0.00 0.00 0.00 87 1012.1
20260509043529 54 161 0.0 0.0 0.00 0.00 0.00 87 1012.2
20260509043036 54 161 0.0 0.0 0.00 0.00 0.00 86 1012.3
20260509042527 54 161 0.0 0.0 0.00 0.00 0.00 86 1012.4
20260509042026 55 161 0.0 0.0 0.00 0.00 0.00 85 1012.5
20260509041525 55 161 0.0 0.0 0.00 0.00 0.00 84 1012.4
20260509041024 56 161 0.0 0.0 0.00 0.00 0.00 83 1012.5
20260509040522 56 161 0.0 0.0 0.00 0.00 0.00 82 1012.6
20260509040022 56 161 0.0 0.0 0.00 0.00 0.00 82 1012.5
20260509035522 56 161 0.0 0.0 0.00 0.00 0.00 81 1012.6
20260509035022 57 161 0.0 0.0 0.00 0.00 0.00 81 1012.5
20260509034521 57 161 0.0 0.0 0.00 0.00 0.00 81 1012.5
20260509034021 57 161 0.0 0.0 0.00 0.00 0.00 82 1012.6
20260509033521 57 161 0.0 0.0 0.00 0.00 0.00 82 1012.5
20260509033025 57 161 0.0 0.0 0.00 0.00 0.00 82 1012.5
20260509032523 57 161 0.0 0.0 0.00 0.00 0.00 81 1012.6
20260509032020 57 161 0.0 0.0 0.00 0.00 0.00 78 1012.5
20260509031524 57 161 0.0 0.0 0.00 0.00 0.00 78 1012.5
20260509031020 57 161 0.0 0.0 0.00 0.00 0.00 78 1012.7
20260509030520 57 161 0.0 0.0 0.00 0.00 0.00 77 1012.7
20260509030022 57 161 0.0 0.0 0.00 0.00 0.00 77 1012.7
20260509025519 57 161 0.0 0.0 0.00 0.00 0.00 78 1012.6
20260509025019 58 161 0.0 0.0 0.00 0.00 0.00 79 1012.7
20260509024519 58 161 0.0 0.0 0.00 0.00 0.00 79 1012.7